BSAT-4B

Last updated on Sun Apr 12 2026 00:02:55 GMT+0000 (Coordinated Universal Time)

1 46112U 20056A 26101.47110844 -.00000348 00000+0 00000+0 0 9990 2 46112 0.0886 105.0112 0002859 345.6425 28.4685 1.00270633 20727
UTC large
Height (km)
Speed (km/s)
/
Latitude / Longitude
Inclination (degrees)
Orbital Period (minutes)
Azimuth
Elevation
Range (km)
Doppler Factor

Next 0 passes for location: London (51.5072 / 0.1276)

Sorry there are no passes over London.
BSAT-4B